QPF
0.00 0.00 0.00 0.00 0.00 0.00 0.00 0.00 0.00 0.00 0.00 0.00 0.00 0.00 0.00 0.00 0.00 0.00 0.00 0.00 0.00 0.00 0.00 0.01 0.02 0.02 0.03 0.03 0.03 0.04 0.04 0.04 0.04 0.06 0.07 0.08 0.10 0.11
0.00 0.00 0.00 0.00 0.00 0.00 0.00 0.00 0.00 0.00 0.00 0.00 0.00 0.00 0.00 0.00 0.00 0.00 0.00 0.00 0.00 0.00 0.00 0.01 0.01 0.02 0.03 0.03 0.03 0.04 0.04 0.04 0.05 0.06 0.08 0.10 0.12 0.13
0.00 0.00 0.00 0.00 0.00 0.00 0.00 0.00 0.00 0.00 0.00 0.00 0.00 0.00 0.00 0.00 0.00 0.00 0.00 0.00 0.00 0.00 0.00 0.01 0.01 0.02 0.02 0.03 0.03 0.04 0.04 0.05 0.06 0.07 0.09 0.11 0.13 0.15
0.00 0.00 0.00 0.00 0.00 0.00 0.00 0.00 0.00 0.00 0.00 0.00 0.00 0.00 0.00 0.00 0.00 0.00 0.00 0.00 0.00 0.00 0.00 0.00 0.01 0.02 0.02 0.03 0.04 0.04 0.04 0.05 0.05 0.06 0.08 0.10 0.13 0.16
0.00 0.00 0.00 0.00 0.01 0.01 0.01 0.01 0.00 0.00 0.00 0.00 0.00 0.00 0.00 0.00 0.00 0.00 0.00 0.00 0.00 0.00 0.00 0.00 0.01 0.01 0.02 0.02 0.03 0.04 0.04 0.04 0.04 0.05 0.06 0.08 0.10 0.14
0.00 0.00 0.01 0.01 0.01 0.01 0.01 0.01 0.00 0.00 0.00 0.01 0.00 0.00 0.00 0.00 0.00 0.00 0.00 0.00 0.00 0.00 0.00 0.00 0.00 0.01 0.01 0.02 0.02 0.02 0.03 0.03 0.04 0.04 0.05 0.06 0.08 0.11
0.00 0.00 0.01 0.01 0.01 0.01 0.01 0.01 0.01 0.01 0.02 0.02 0.01 0.01 0.01 0.00 0.01 0.01 0.01 0.00 0.00 0.00 0.00 0.00 0.00 0.00 0.00 0.00 0.00 0.01 0.01 0.02 0.02 0.03 0.04 0.05 0.07 0.10
0.01 0.01 0.01 0.01 0.01 0.02 0.02 0.02 0.02 0.03 0.03 0.03 0.02 0.01 0.01 0.00 0.01 0.01 0.01 0.01 0.01 0.00 0.00 0.00 0.00 0.00 0.00 0.00 0.00 0.01 0.02 0.02 0.03 0.03 0.04 0.05 0.07 0.09
0.01 0.01 0.01 0.01 0.01 0.01 0.02 0.02 0.02 0.02 0.02 0.02 0.03 0.01 0.01 0.00 0.01 0.01 0.01 0.01 0.01 0.00 0.01 0.01 0.00 0.00 0.00 0.00 0.00 0.01 0.02 0.03 0.03 0.04 0.04 0.05 0.07 0.09
0.01 0.01 0.01 0.01 0.01 0.01 0.01 0.01 0.01 0.01 0.01 0.01 0.01 0.01 0.01 0.01 0.02 0.04 0.05 0.04 0.01 0.00 0.01 0.01 0.01 0.00 0.00 0.00 0.00 0.01 0.02 0.03 0.03 0.04 0.04 0.05 0.06 0.08
0.01 0.01 0.01 0.01 0.00 0.01 0.02 0.01 0.01 0.00 0.00 0.01 0.01 0.01 0.02 0.02 0.03 0.05 0.05 0.03 0.01 0.00 0.00 0.01 0.01 0.01 0.00 0.00 0.00 0.01 0.02 0.03 0.03 0.04 0.04 0.04 0.05 0.07
0.01 0.01 0.01 0.01 0.01 0.01 0.02 0.02 0.01 0.00 0.00 0.00 0.01 0.01 0.01 0.00 0.01 0.01 0.02 0.02 0.02 0.01 0.00 0.01 0.02 0.02 0.02 0.01 0.01 0.01 0.02 0.02 0.02 0.03 0.03 0.04 0.05 0.06
0.02 0.02 0.01 0.01 0.02 0.02 0.02 0.02 0.01 0.01 0.01 0.01 0.01 0.00 0.00 0.00 0.00 0.00 0.01 0.02 0.03 0.02 0.01 0.03 0.04 0.03 0.04 0.02 0.00 0.00 0.01 0.01 0.01 0.02 0.02 0.03 0.04 0.06
0.02 0.01 0.01 0.01 0.01 0.02 0.02 0.02 0.02 0.02 0.02 0.02 0.01 0.00 0.00 0.00 0.00 0.00 0.00 0.01 0.01 0.02 0.01 0.03 0.06 0.05 0.05 0.03 0.01 0.00 0.01 0.01 0.02 0.02 0.02 0.03 0.04 0.05
0.02 0.01 0.01 0.01 0.02 0.02 0.02 0.02 0.02 0.02 0.02 0.01 0.00 0.00 0.00 0.00 0.00 0.00 0.00 0.00 0.01 0.01 0.01 0.03 0.05 0.05 0.06 0.05 0.02 0.01 0.01 0.01 0.02 0.03 0.04 0.04 0.04 0.05
0.05 0.03 0.03 0.03 0.02 0.01 0.01 0.01 0.01 0.01 0.00 0.00 0.00 0.00 0.00 0.00 0.00 0.00 0.00 0.01 0.01 0.01 0.01 0.02 0.04 0.06 0.06 0.04 0.03 0.02 0.01 0.01 0.01 0.03 0.04 0.04 0.03 0.04
0.05 0.07 0.06 0.05 0.04 0.02 0.01 0.01 0.01 0.01 0.00 0.00 0.00 0.00 0.00 0.00 0.00 0.00 0.01 0.01 0.02 0.01 0.01 0.01 0.02 0.04 0.04 0.04 0.04 0.02 0.01 0.01 0.01 0.02 0.03 0.03 0.03 0.03
0.06 0.08 0.06 0.04 0.02 0.02 0.01 0.01 0.00 0.00 0.00 0.00 0.00 0.00 0.00 0.00 0.00 0.00 0.01 0.01 0.02 0.01 0.01 0.01 0.02 0.03 0.03 0.02 0.02 0.02 0.02 0.01 0.01 0.01 0.02 0.03 0.02 0.02
0.08 0.06 0.03 0.02 0.02 0.01 0.01 0.00 0.00 0.00 0.00 0.00 0.00 0.00 0.00 0.00 0.01 0.01 0.01 0.01 0.02 0.02 0.02 0.02 0.04 0.05 0.05 0.02 0.01 0.02 0.04 0.03 0.03 0.02 0.02 0.02 0.02 0.02
0.06 0.04 0.03 0.02 0.02 0.01 0.01 0.00 0.00 0.00 0.00 0.00 0.00 0.00 0.00 0.01 0.01 0.01 0.01 0.02 0.02 0.02 0.02 0.02 0.04 0.05 0.06 0.04 0.03 0.02 0.03 0.04 0.04 0.03 0.01 0.01 0.02 0.02
0.03 0.03 0.02 0.02 0.01 0.01 0.00 0.00 0.00 0.00 0.00 0.00 0.00 0.00 0.00 0.01 0.01 0.01 0.01 0.02 0.03 0.03 0.02 0.02 0.02 0.04 0.05 0.05 0.03 0.01 0.01 0.03 0.04 0.03 0.02 0.02 0.03 0.03
0.03 0.03 0.02 0.02 0.01 0.01 0.01 0.00 0.00 0.00 0.00 0.00 0.00 0.00 0.00 0.01 0.01 0.01 0.02 0.02 0.02 0.02 0.02 0.02 0.02 0.03 0.04 0.05 0.03 0.02 0.02 0.02 0.02 0.02 0.02 0.02 0.03 0.04
0.03 0.03 0.02 0.02 0.01 0.01 0.01 0.01 0.01 0.00 0.00 0.00 0.00 0.00 0.01 0.01 0.01 0.02 0.02 0.03 0.03 0.02 0.02 0.02 0.02 0.03 0.03 0.03 0.03 0.02 0.02 0.02 0.02 0.02 0.01 0.01 0.01 0.03
MSLP
1015.41 1015.78 1016.16 1016.54 1016.90 1017.21 1017.46 1017.65 1017.78 1017.85 1017.87 1017.84 1017.78 1017.69 1017.57 1017.41 1017.22 1016.99 1016.73 1016.43 1016.11 1015.77 1015.43 1015.09 1014.76 1014.45 1014.15 1013.86 1013.57 1013.27 1012.95 1012.60 1012.21 1011.79 1011.35 1010.92 1010.52 1010.16
1014.30 1014.69 1015.09 1015.50 1015.88 1016.23 1016.52 1016.74 1016.91 1017.02 1017.07 1017.08 1017.04 1016.95 1016.82 1016.65 1016.43 1016.17 1015.86 1015.52 1015.16 1014.78 1014.40 1014.04 1013.69 1013.36 1013.05 1012.75 1012.44 1012.11 1011.75 1011.36 1010.93 1010.48 1010.02 1009.57 1009.17 1008.82
1013.20 1013.62 1014.06 1014.50 1014.91 1015.29 1015.61 1015.88 1016.08 1016.22 1016.30 1016.34 1016.32 1016.24 1016.11 1015.93 1015.68 1015.38 1015.03 1014.64 1014.22 1013.79 1013.36 1012.96 1012.58 1012.22 1011.88 1011.55 1011.21 1010.85 1010.46 1010.03 1009.57 1009.08 1008.60 1008.15 1007.74 1007.41
1012.10 1012.57 1013.05 1013.52 1013.97 1014.38 1014.73 1015.02 1015.25 1015.42 1015.53 1015.58 1015.57 1015.51 1015.38 1015.18 1014.91 1014.57 1014.18 1013.73 1013.26 1012.78 1012.30 1011.85 1011.43 1011.04 1010.67 1010.30 1009.93 1009.53 1009.10 1008.64 1008.14 1007.63 1007.14 1006.68 1006.28 1005.95
1010.99 1011.51 1012.04 1012.56 1013.04 1013.48 1013.84 1014.15 1014.39 1014.57 1014.69 1014.75 1014.76 1014.69 1014.57 1014.36 1014.08 1013.72 1013.29 1012.80 1012.28 1011.76 1011.24 1010.74 1010.28 1009.84 1009.44 1009.03 1008.62 1008.19 1007.72 1007.22 1006.70 1006.17 1005.66 1005.20 1004.80 1004.48
1009.89 1010.46 1011.03 1011.59 1012.09 1012.54 1012.91 1013.21 1013.44 1013.62 1013.73 1013.80 1013.81 1013.76 1013.63 1013.43 1013.15 1012.78 1012.34 1011.83 1011.29 1010.73 1010.18 1009.65 1009.15 1008.68 1008.24 1007.80 1007.35 1006.87 1006.36 1005.83 1005.27 1004.72 1004.19 1003.72 1003.31 1002.98
1008.79 1009.40 1010.00 1010.58 1011.09 1011.53 1011.89 1012.17 1012.38 1012.54 1012.64 1012.70 1012.72 1012.68 1012.57 1012.39 1012.13 1011.78 1011.35 1010.85 1010.30 1009.74 1009.17 1008.62 1008.09 1007.59 1007.11 1006.63 1006.14 1005.62 1005.06 1004.48 1003.89 1003.30 1002.74 1002.24 1001.82 1001.47
1007.70 1008.32 1008.94 1009.51 1010.01 1010.43 1010.76 1011.00 1011.19 1011.32 1011.41 1011.47 1011.49 1011.48 1011.40 1011.26 1011.04 1010.73 1010.34 1009.88 1009.35 1008.80 1008.23 1007.67 1007.12 1006.60 1006.08 1005.55 1005.01 1004.44 1003.83 1003.20 1002.55 1001.92 1001.31 1000.78 1000.31 999.92
1006.61 1007.23 1007.83 1008.38 1008.85 1009.22 1009.51 1009.73 1009.88 1009.99 1010.07 1010.14 1010.19 1010.21 1010.19 1010.10 1009.94 1009.70 1009.36 1008.95 1008.46 1007.93 1007.38 1006.81 1006.25 1005.69 1005.13 1004.56 1003.96 1003.33 1002.67 1001.97 1001.26 1000.56 999.90 999.31 998.79 998.35
1005.52 1006.11 1006.68 1007.18 1007.61 1007.94 1008.20 1008.37 1008.51 1008.61 1008.70 1008.79 1008.88 1008.95 1008.99 1008.98 1008.89 1008.72 1008.44 1008.08 1007.64 1007.14 1006.60 1006.03 1005.45 1004.86 1004.25 1003.63 1002.97 1002.28 1001.54 1000.78 1000.00 999.23 998.51 997.85 997.26 996.76
1004.44 1004.97 1005.49 1005.95 1006.33 1006.63 1006.85 1007.02 1007.15 1007.26 1007.38 1007.51 1007.65 1007.78 1007.89 1007.95 1007.93 1007.82 1007.60 1007.29 1006.88 1006.40 1005.86 1005.28 1004.67 1004.04 1003.40 1002.72 1002.00 1001.24 1000.44 999.61 998.77 997.93 997.14 996.40 995.76 995.19
1003.36 1003.84 1004.29 1004.71 1005.05 1005.34 1005.55 1005.73 1005.88 1006.03 1006.19 1006.37 1006.57 1006.76 1006.93 1007.05 1007.08 1007.02 1006.84 1006.55 1006.15 1005.67 1005.12 1004.52 1003.88 1003.21 1002.51 1001.78 1001.01 1000.20 999.34 998.46 997.56 996.66 995.81 995.02 994.30 993.68
1002.30 1002.72 1003.13 1003.51 1003.84 1004.12 1004.36 1004.56 1004.76 1004.97 1005.19 1005.43 1005.68 1005.93 1006.14 1006.29 1006.35 1006.30 1006.13 1005.84 1005.43 1004.92 1004.35 1003.71 1003.03 1002.32 1001.58 1000.80 999.99 999.14 998.24 997.32 996.38 995.45 994.55 993.71 992.95 992.27
1001.27 1001.64 1002.02 1002.38 1002.72 1003.03 1003.30 1003.57 1003.83 1004.10 1004.39 1004.69 1004.99 1005.27 1005.51 1005.66 1005.72 1005.65 1005.46 1005.13 1004.69 1004.15 1003.53 1002.85 1002.13 1001.38 1000.60 999.79 998.95 998.07 997.16 996.22 995.27 994.32 993.40 992.53 991.73 991.02
1000.31 1000.65 1001.00 1001.37 1001.73 1002.08 1002.41 1002.75 1003.08 1003.43 1003.78 1004.13 1004.47 1004.76 1004.99 1005.12 1005.15 1005.04 1004.80 1004.43 1003.93 1003.34 1002.68 1001.96 1001.20 1000.41 999.60 998.77 997.92 997.03 996.12 995.18 994.23 993.28 992.35 991.48 990.67 989.93
999.43 999.74 1000.09 1000.47 1000.87 1001.26 1001.67 1002.08 1002.49 1002.90 1003.31 1003.70 1004.05 1004.34 1004.54 1004.64 1004.61 1004.45 1004.15 1003.72 1003.18 1002.54 1001.83 1001.07 1000.28 999.47 998.64 997.80 996.94 996.05 995.14 994.21 993.28 992.34 991.43 990.56 989.75 989.01
998.63 998.93 999.29 999.69 1000.12 1000.57 1001.04 1001.51 1001.99 1002.46 1002.91 1003.32 1003.68 1003.95 1004.12 1004.17 1004.09 1003.87 1003.52 1003.04 1002.45 1001.77 1001.04 1000.25 999.44 998.61 997.77 996.91 996.04 995.16 994.25 993.33 992.41 991.50 990.61 989.76 988.96 988.23
997.91 998.21 998.58 999.00 999.46 999.96 1000.48 1001.01 1001.54 1002.05 1002.53 1002.95 1003.30 1003.55 1003.69 1003.70 1003.57 1003.31 1002.91 1002.40 1001.79 1001.09 1000.34 999.54 998.72 997.87 997.01 996.14 995.26 994.36 993.45 992.54 991.62 990.72 989.85 989.03 988.25 987.54
997.27 997.56 997.94 998.37 998.86 999.39 999.95 1000.52 1001.09 1001.63 1002.12 1002.54 1002.88 1003.11 1003.22 1003.20 1003.04 1002.75 1002.34 1001.82 1001.20 1000.51 999.75 998.95 998.12 997.27 996.39 995.49 994.58 993.66 992.73 991.80 990.89 990.00 989.14 988.34 987.60 986.92
996.67 996.97 997.35 997.79 998.30 998.85 999.43 1000.03 1000.61 1001.16 1001.66 1002.08 1002.40 1002.62 1002.70 1002.67 1002.50 1002.20 1001.80 1001.28 1000.68 1000.01 999.27 998.48 997.64 996.77 995.87 994.94 994.00 993.04 992.07 991.12 990.19 989.30 988.46 987.68 986.97 986.32
996.10 996.41 996.80 997.25 997.77 998.33 998.92 999.52 1000.11 1000.66 1001.15 1001.56 1001.87 1002.07 1002.15 1002.10 1001.94 1001.65 1001.27 1000.78 1000.21 999.56 998.84 998.07 997.24 996.35 995.43 994.46 993.47 992.47 991.47 990.48 989.54 988.64 987.81 987.06 986.39 985.79
995.57 995.90 996.30 996.75 997.27 997.83 998.42 999.02 999.60 1000.13 1000.61 1001.00 1001.30 1001.48 1001.55 1001.51 1001.35 1001.09 1000.72 1000.27 999.74 999.12 998.44 997.68 996.85 995.97 995.02 994.03 993.00 991.96 990.93 989.92 988.96 988.07 987.25 986.53 985.90 985.35
995.09 995.44 995.85 996.31 996.83 997.39 997.96 998.54 999.10 999.62 1000.07 1000.44 1000.71 1000.87 1000.93 1000.88 1000.73 1000.48 1000.15 999.73 999.23 998.66 998.00 997.27 996.47 995.58 994.63 993.63 992.59 991.53 990.48 989.47 988.51 987.63 986.84 986.16 985.56 985.06
Thickness
5481 5473 5466 5460 5452 5445 5438 5429 5418 5409 5413 5410 5404 5401 5394 5388 5382 5377 5373 5368 5364 5360 5357 5353 5349 5344 5340 5335 5331 5327 5323 5320 5318 5316 5316 5318 5322 5328
5472 5464 5458 5451 5443 5435 5427 5420 5412 5404 5400 5400 5394 5388 5381 5375 5369 5365 5360 5355 5351 5346 5342 5338 5333 5328 5323 5318 5314 5310 5306 5303 5300 5298 5297 5298 5301 5306
5465 5457 5450 5441 5433 5425 5417 5410 5403 5395 5391 5390 5382 5376 5368 5362 5358 5352 5347 5342 5338 5332 5327 5323 5318 5313 5307 5303 5299 5295 5291 5288 5286 5283 5282 5283 5285 5290
5459 5450 5443 5433 5425 5416 5408 5401 5395 5387 5380 5377 5372 5365 5358 5351 5346 5341 5336 5332 5327 5321 5315 5310 5305 5299 5294 5290 5285 5281 5277 5274 5271 5269 5268 5269 5272 5277
5452 5443 5435 5424 5417 5409 5400 5393 5385 5378 5370 5365 5362 5355 5348 5341 5335 5331 5327 5321 5316 5310 5304 5298 5293 5287 5282 5277 5273 5268 5264 5261 5258 5256 5256 5258 5262 5267
5446 5437 5428 5418 5410 5400 5391 5383 5375 5367 5360 5354 5350 5345 5339 5332 5324 5321 5318 5311 5305 5298 5292 5286 5281 5276 5271 5265 5261 5256 5252 5249 5247 5246 5247 5250 5253 5258
5438 5430 5421 5411 5401 5391 5382 5374 5365 5358 5351 5344 5340 5334 5330 5322 5316 5310 5306 5302 5297 5286 5281 5277 5269 5266 5261 5254 5249 5245 5241 5239 5238 5238 5240 5243 5247 5253
5430 5421 5412 5403 5394 5386 5378 5369 5359 5350 5343 5336 5331 5326 5323 5314 5307 5300 5294 5289 5289 5281 5269 5270 5259 5256 5252 5246 5241 5237 5234 5232 5232 5233 5236 5240 5244 5251
5421 5412 5404 5396 5386 5376 5370 5364 5358 5350 5342 5331 5325 5321 5315 5307 5297 5291 5284 5278 5277 5269 5257 5262 5254 5249 5245 5239 5234 5231 5228 5228 5229 5231 5234 5239 5244 5251
5414 5405 5395 5387 5378 5368 5360 5353 5348 5342 5335 5328 5321 5315 5306 5298 5288 5281 5275 5271 5270 5261 5246 5246 5248 5242 5240 5233 5227 5224 5223 5223 5226 5230 5234 5239 5245 5253
5406 5397 5388 5379 5371 5362 5354 5347 5340 5334 5327 5321 5315 5308 5300 5292 5283 5275 5269 5262 5263 5258 5241 5232 5235 5233 5233 5229 5224 5220 5219 5220 5222 5227 5232 5239 5247 5256
5397 5390 5383 5374 5365 5358 5350 5342 5335 5328 5319 5312 5306 5300 5293 5285 5277 5268 5258 5251 5249 5248 5238 5226 5224 5217 5225 5229 5221 5217 5215 5215 5218 5224 5230 5239 5249 5258
5388 5383 5375 5368 5361 5353 5346 5338 5332 5323 5314 5306 5299 5292 5284 5277 5269 5260 5252 5243 5238 5237 5230 5219 5216 5210 5207 5218 5221 5215 5212 5213 5216 5222 5228 5239 5251 5263
5381 5374 5368 5361 5354 5348 5340 5334 5327 5319 5310 5301 5293 5286 5278 5270 5263 5255 5248 5240 5234 5229 5225 5214 5210 5206 5204 5208 5214 5217 5213 5213 5215 5221 5229 5242 5256 5270
5373 5367 5360 5354 5347 5340 5335 5328 5320 5311 5302 5294 5287 5280 5272 5264 5256 5249 5243 5237 5231 5226 5220 5213 5208 5206 5202 5204 5210 5213 5214 5217 5218 5224 5233 5246 5261 5277
5364 5359 5353 5347 5339 5333 5326 5319 5311 5303 5295 5288 5280 5273 5264 5257 5250 5243 5237 5232 5228 5227 5220 5214 5209 5206 5205 5206 5207 5212 5213 5216 5222 5226 5236 5251 5268 5285
5350 5346 5341 5336 5331 5323 5315 5308 5301 5294 5288 5281 5273 5265 5258 5252 5245 5238 5232 5227 5224 5223 5221 5216 5211 5208 5207 5207 5211 5215 5218 5221 5225 5231 5241 5257 5277 5296
5342 5337 5332 5327 5322 5316 5309 5301 5294 5287 5281 5274 5266 5259 5252 5245 5239 5234 5228 5223 5221 5219 5217 5215 5211 5211 5212 5214 5216 5218 5221 5225 5231 5238 5248 5264 5286 5307
5334 5329 5324 5320 5314 5308 5302 5294 5287 5281 5274 5267 5260 5252 5246 5240 5235 5231 5226 5222 5219 5217 5215 5212 5210 5209 5211 5216 5220 5223 5224 5228 5234 5245 5258 5273 5292 5314
5326 5321 5317 5312 5307 5301 5294 5288 5281 5274 5267 5261 5254 5247 5241 5236 5232 5228 5224 5220 5219 5217 5216 5213 5210 5209 5210 5214 5220 5225 5226 5230 5239 5251 5265 5281 5299 5319
5318 5313 5309 5305 5300 5294 5288 5282 5275 5269 5262 5255 5249 5243 5237 5232 5229 5226 5223 5221 5219 5217 5215 5215 5214 5214 5214 5216 5222 5231 5235 5239 5247 5257 5271 5286 5305 5326
5311 5306 5302 5298 5293 5288 5282 5276 5269 5263 5257 5250 5245 5239 5235 5231 5228 5225 5222 5220 5219 5217 5216 5217 5217 5217 5218 5220 5226 5233 5240 5249 5258 5269 5280 5292 5307 5330
5304 5299 5296 5292 5287 5282 5276 5271 5265 5259 5253 5247 5242 5237 5233 5230 5227 5225 5223 5221 5220 5218 5218 5219 5220 5221 5222 5225 5229 5236 5244 5254 5264 5276 5291 5304 5317 5333